Flag for Nepal Weather past 2 weeks in Pokhara, Nepal

Now
57 °F

Passing clouds.


Feels Like: 57 °F
Forecast: 67 / 90 °F
Wind: No wind

Location: Kathmandu Airport


UV Index: 7 (High)

Visibility: 4 mi


Pressure: 30.01 "Hg

Humidity: 72%

Dew point: 48 °F

Location of PokharaLocation

Historic Weather in Pokhara

°F

Pokhara temperature yesterday

Maximum temperature yesterday: 84 °F (at 2:35 PM)
Minimum temperature yesterday: 61 °F (at 5:35 AM)
Average temperature yesterday: 72 °F

Past Weeks' High & Low Weather Summary

 TemperatureHumidityPressure
High84 °F (Apr 16, 10:35 AM)88% (Apr 6, 5:35 AM)30.21 "Hg (Apr 6, 5:35 AM)
Low48 °F (Apr 15, 4:35 AM)14% (Apr 16, 10:35 AM)29.89 "Hg (Apr 8, 4:35 PM)
Average66 °F50%30.03 "Hg
* Reported Apr 5 4:35 AM — Apr 20 3:35 AM, Pokhara, Weather by CustomWeather, © 2014

Note: Actual official high and low records may vary slightly from our data, if they occured in-between our weather recording intervals... More about our weather records

Advertising

Historic Weather Conditions — Data for Previous 24 hours

 ConditionsComfort  
Time TempWeatherWind HumidityBarometerVisibility
3:35 AM
Apr 20
59 °FPassing clouds.No wind68%30.01 "Hg4 mi
2:35 AM61 °FPassing clouds.No wind63%30.04 "Hg4 mi
1:35 AM63 °FPassing clouds.No wind59%30.04 "Hg4 mi
12:35 AM64 °FPassing clouds.No wind56%30.07 "Hg4 mi
11:35 PM
Apr 19
68 °FPassing clouds.No wind46%30.07 "Hg4 mi
10:35 PM68 °FPassing clouds.No wind46%30.07 "Hg4 mi
9:35 PM70 °FPassing clouds.3 mph40%30.07 "Hg4 mi
8:35 PM73 °FPassing clouds.3 mph33%30.04 "Hg4 mi
7:35 PM75 °FPassing clouds.5 mph29%30.01 "Hg4 mi
6:35 PM79 °FBroken clouds.7 mph23%29.98 "Hg5 mi
5:35 PM79 °FBroken clouds.13 mph20%29.98 "HgN/A
4:35 PM81 °FScattered clouds.12 mph20%29.98 "HgN/A
3:35 PM82 °FScattered clouds.6 mph20%29.98 "HgN/A
2:35 PM84 °FPassing clouds.3 mph20%30.01 "HgN/A
1:35 PM82 °FScattered clouds.9 mph21%30.01 "HgN/A
12:35 PM82 °FScattered clouds.5 mph23%30.04 "Hg5 mi
11:35 AM81 °FScattered clouds.9 mph26%30.07 "Hg5 mi
10:35 AM77 °FScattered clouds.3 mph28%30.09 "Hg5 mi
9:35 AM77 °FHaze.No wind30%30.09 "Hg2 mi
8:35 AM73 °FHaze.No wind33%30.09 "Hg2 mi
7:35 AM64 °FHaze.5 mph56%30.07 "Hg1 mi
6:35 AM61 °FFog.No wind63%30.07 "Hg1 mi
5:35 AM61 °FPartly cloudy.3 mph63%30.07 "Hg4 mi
4:35 AM63 °FPartly cloudy.No wind59%30.07 "Hg4 mi
Weather by CustomWeather, © 2014

See weather overview